Orbital Elements at Epoch 2459000.5 (2020-May-31.0) TDB
Reference: JPL 25 (heliocentric ecliptic J2000)
Element | Value | Uncertainty (1-sigma) | Units |
e | .1047900178574503 | 3.4318e-08 | |
a | 2.487884664618937 | 1.0926e-08 | au |
q | 2.227179186186242 | 8.6579e-08 | au |
i | 3.159766177115019 | 3.9177e-06 | deg |
node | 294.4888542552339 | 7.6467e-05 | deg |
peri | 188.1380568368998 | 7.939e-05 | deg |
M | 1.071715275257479 | 2.2318e-05 | deg |
tp | 2458996.233018975209 (2020-May-26.73301898) | 8.8853e-05 | TDB |
period | 1433.322081329717 3.92 | 9.4419e-06 2.585e-08 | d yr |
n | .2511647624001034 | 1.6545e-09 | deg/d |
Q | 2.748590143051632 | 1.2071e-08 | au |
|
| | Orbit Determination Parameters
Additional Information
|